DW8463 Weather Reports


Display with metric or nautical units.
time (UTC)temp
F
wind
direction
speed
MPH
gust
MPH
rain 1hr
in
rain 24hr
in
rain mn
in
humidity
%
barometer
mb
20260504050303 43 0 0.0 0.0 0.00 0.00 0.00 53 1001.8
20260504045803 44 0 0.0 0.0 0.00 0.00 0.00 47 1001.9
20260504044803 44 0 0.0 0.0 0.00 0.00 0.00 47 1002.0
20260504044303 45 0 0.0 0.0 0.00 0.00 0.00 47 1002.1
20260504043803 45 0 0.0 0.0 0.00 0.00 0.00 47 1002.1
20260504042803 45 0 0.0 0.0 0.00 0.00 0.00 47 1002.3
20260504042304 45 0 0.0 0.0 0.00 0.00 0.00 47 1002.3
20260504041803 45 0 0.0 0.0 0.00 0.00 0.00 47 1002.3
20260504041303 45 0 0.0 0.0 0.00 0.00 0.00 47 1002.4
20260504040803 46 0 0.0 0.0 0.00 0.00 0.00 47 1002.5
20260504035803 46 0 0.0 0.0 0.00 0.00 0.00 41 1002.6
20260504035304 46 0 0.0 0.0 0.00 0.00 0.00 41 1002.7
20260504034803 47 0 0.0 0.0 0.00 0.00 0.00 41 1002.8
20260504034303 47 0 0.0 0.0 0.00 0.00 0.00 41 1002.8
20260504033803 47 0 0.0 0.0 0.00 0.00 0.00 41 1002.9
20260504033302 47 0 0.0 0.0 0.00 0.00 0.00 41 1002.9
20260504032803 48 0 0.0 0.0 0.00 0.00 0.00 41 1003.0
20260504032304 48 0 0.0 0.0 0.00 0.00 0.00 41 1003.1
20260504031802 48 0 0.0 0.0 0.00 0.00 0.00 41 1003.2
20260504031303 49 0 0.0 0.0 0.00 0.00 0.00 41 1003.3
20260504030803 49 0 0.0 0.0 0.00 0.00 0.00 41 1003.3
20260504030303 49 0 0.0 0.0 0.00 0.00 0.00 41 1003.4
20260504025803 49 0 0.0 0.0 0.00 0.00 0.00 40 1003.4
20260504025304 50 0 0.0 0.0 0.00 0.00 0.00 40 1003.4
20260504024803 51 0 0.0 0.0 0.00 0.00 0.00 40 1003.3
20260504024303 51 0 0.0 0.0 0.00 0.00 0.00 40 1003.3
20260504023802 51 0 0.0 0.0 0.00 0.00 0.00 40 1003.3
20260504023303 52 0 0.0 0.0 0.00 0.00 0.00 40 1003.3
20260504022803 52 0 0.0 0.0 0.00 0.00 0.00 40 1003.3
20260504022304 53 0 0.0 0.0 0.00 0.00 0.00 40 1003.4
20260504021803 53 0 0.0 0.0 0.00 0.00 0.00 40 1003.3
20260504020803 54 0 0.0 0.0 0.00 0.00 0.00 40 1003.3
20260504020303 55 0 0.0 0.0 0.00 0.00 0.00 38 1003.3
20260504015803 55 0 0.0 0.0 0.00 0.00 0.00 30 1003.3
20260504015304 56 0 0.0 0.0 0.00 0.00 0.00 30 1003.3
20260504014803 57 0 0.0 0.0 0.00 0.00 0.00 30 1003.3
20260504014302 57 0 0.0 0.0 0.00 0.00 0.00 30 1003.3
20260504013802 58 0 0.0 0.0 0.00 0.00 0.00 30 1003.2
20260504012803 60 0 0.0 1.0 0.00 0.00 0.00 30 1003.2
20260504012304 60 0 0.0 0.0 0.00 0.00 0.00 30 1003.2
20260504011803 61 0 0.0 0.0 0.00 0.00 0.00 30 1003.2
20260504011302 62 0 0.0 2.0 0.00 0.00 0.00 30 1003.2
20260504010803 62 0 1.0 2.0 0.00 0.00 0.00 30 1003.2
20260504005803 64 0 1.0 3.0 0.00 0.00 0.00 26 1003.3
20260504005304 64 286 3.0 5.0 0.00 0.00 0.00 26 1003.3
20260504004803 65 295 2.0 8.0 0.00 0.00 0.00 26 1003.2
20260504004303 65 288 2.0 7.0 0.00 0.00 0.00 26 1003.2
20260504003803 66 298 3.0 6.0 0.00 0.00 0.00 26 1003.3
20260504003303 66 280 2.0 9.0 0.00 0.00 0.00 26 1003.3
20260504002802 66 298 5.0 10.0 0.00 0.00 0.00 26 1003.2
20260504001803 67 302 4.0 12.0 0.00 0.00 0.00 26 1003.3
20260504001303 67 315 4.0 10.0 0.00 0.00 0.00 26 1003.4
20260503235803 68 274 4.0 12.0 0.00 0.00 0.00 26 1003.4
20260503235304 68 265 3.0 13.0 0.00 0.00 0.00 26 1003.4
20260503234803 68 330 5.0 12.0 0.00 0.00 0.00 26 1003.4
20260503234303 68 289 4.0 12.0 0.00 0.00 0.00 26 1003.4
20260503233803 68 281 5.0 14.0 0.00 0.00 0.00 26 1003.5
20260503233303 68 282 8.0 15.0 0.00 0.00 0.00 26 1003.4
20260503232803 68 290 5.0 9.0 0.00 0.00 0.00 26 1003.4
20260503232305 68 318 6.0 14.0 0.00 0.00 0.00 26 1003.5
20260503231803 69 323 6.0 14.0 0.00 0.00 0.00 26 1003.5
20260503231303 69 323 9.0 15.0 0.00 0.00 0.00 26 1003.5
20260503230803 69 307 6.0 13.0 0.00 0.00 0.00 26 1003.6
20260503230303 69 270 2.0 9.0 0.00 0.00 0.00 26 1003.6
20260503225803 69 326 5.0 8.0 0.00 0.00 0.00 28 1003.6
20260503225304 70 308 5.0 8.0 0.00 0.00 0.00 28 1003.7
20260503224803 70 330 7.0 12.0 0.00 0.00 0.00 28 1003.7
20260503224303 70 262 6.0 13.0 0.00 0.00 0.00 28 1003.6
20260503223803 70 299 5.0 12.0 0.00 0.00 0.00 28 1003.7
20260503223303 70 285 10.0 15.0 0.00 0.00 0.00 28 1003.7
20260503222803 70 316 5.0 12.0 0.00 0.00 0.00 28 1003.6
20260503222304 70 308 8.0 14.0 0.00 0.00 0.00 28 1003.6
20260503221803 70 307 5.0 16.0 0.00 0.00 0.00 28 1003.6
20260503221303 70 288 6.0 12.0 0.00 0.00 0.00 28 1003.5
20260503220803 71 271 6.0 15.0 0.00 0.00 0.00 28 1003.6
20260503220303 71 288 5.0 12.0 0.00 0.00 0.00 28 1003.6
20260503215803 71 287 7.0 14.0 0.00 0.00 0.00 29 1003.6
20260503215304 71 293 6.0 13.0 0.00 0.00 0.00 29 1003.5
20260503214802 70 317 9.0 14.0 0.00 0.00 0.00 29 1003.5
20260503214302 71 314 7.0 14.0 0.00 0.00 0.00 29 1003.5
20260503213802 71 317 6.0 10.0 0.00 0.00 0.00 29 1003.5
20260503213303 71 279 5.0 12.0 0.00 0.00 0.00 29 1003.5
20260503212803 70 330 6.0 14.0 0.00 0.00 0.00 29 1003.6
20260503212304 70 326 10.0 17.0 0.00 0.00 0.00 29 1003.6
20260503211803 71 341 8.0 15.0 0.00 0.00 0.00 29 1003.6
20260503211303 70 321 8.0 18.0 0.00 0.00 0.00 29 1003.7
20260503210303 71 318 6.0 17.0 0.00 0.00 0.00 29 1003.8
20260503205803 70 262 5.0 14.0 0.00 0.00 0.00 33 1003.8
20260503205304 70 342 9.0 14.0 0.00 0.00 0.00 33 1003.9
20260503204803 70 306 7.0 12.0 0.00 0.00 0.00 33 1003.9
20260503204303 71 307 6.0 14.0 0.00 0.00 0.00 33 1004.0
20260503203803 71 268 6.0 18.0 0.00 0.00 0.00 33 1004.1
20260503203303 71 335 9.0 15.0 0.00 0.00 0.00 33 1004.1
20260503202803 70 293 10.0 15.0 0.00 0.00 0.00 33 1004.2
20260503202304 70 341 9.0 16.0 0.00 0.00 0.00 33 1004.3
20260503200803 70 341 7.0 20.0 0.00 0.00 0.00 33 1004.3
20260503200303 70 315 5.0 12.0 0.00 0.00 0.00 33 1004.2
20260503195802 71 335 10.0 15.0 0.00 0.00 0.00 31 1004.3
20260503195304 71 310 10.0 17.0 0.00 0.00 0.00 31 1004.2
20260503194803 71 302 6.0 17.0 0.00 0.00 0.00 31 1004.2
20260503194303 70 346 9.0 16.0 0.00 0.00 0.00 31 1004.2
20260503193803 70 333 7.0 14.0 0.00 0.00 0.00 31 1004.3
20260503193303 70 257 6.0 12.0 0.00 0.00 0.00 31 1004.3
20260503192803 70 310 8.0 16.0 0.00 0.00 0.00 31 1004.5
20260503192305 70 310 7.0 17.0 0.00 0.00 0.00 31 1004.4
20260503191303 70 308 11.0 18.0 0.00 0.00 0.00 31 1004.5
20260503190803 70 341 12.0 18.0 0.00 0.00 0.00 31 1004.4
20260503190303 70 328 12.0 21.0 0.00 0.00 0.00 31 1004.5
20260503185305 70 318 7.0 18.0 0.00 0.00 0.00 36 1004.6
20260503184803 69 322 9.0 20.0 0.00 0.00 0.00 36 1004.6
20260503184302 70 328 10.0 20.0 0.00 0.00 0.00 36 1004.6
20260503183803 69 292 4.0 14.0 0.00 0.00 0.00 36 1004.5
20260503183303 69 299 8.0 14.0 0.00 0.00 0.00 36 1004.6
20260503182803 69 334 4.0 16.0 0.00 0.00 0.00 36 1004.6
20260503180803 69 332 8.0 16.0 0.00 0.00 0.00 36 1004.9
20260503180303 69 355 8.0 16.0 0.00 0.00 0.00 36 1004.8
20260503175803 69 324 6.0 12.0 0.00 0.00 0.00 40 1004.9
20260503175304 69 324 5.0 18.0 0.00 0.00 0.00 40 1004.9
20260503174803 68 279 12.0 18.0 0.00 0.00 0.00 40 1004.9
20260503174303 69 338 8.0 13.0 0.00 0.00 0.00 40 1004.8
20260503173303 68 314 9.0 18.0 0.00 0.00 0.00 40 1004.9
20260503172803 68 321 7.0 15.0 0.00 0.00 0.00 40 1005.0
20260503171803 67 327 9.0 18.0 0.00 0.00 0.00 40 1005.0
20260503171303 67 277 6.0 16.0 0.00 0.00 0.00 40 1005.0
20260503170803 67 310 11.0 20.0 0.00 0.00 0.00 40 1005.1
20260503170303 67 317 9.0 15.0 0.00 0.00 0.00 40 1005.1
20260503150803 62 0 6.0 10.0 0.00 0.00 0.00 46 1004.7
20260503150303 61 302 7.0 10.0 0.00 0.00 0.00 46 1004.7
20260503140303 59 236 5.0 13.0 0.00 0.00 0.00 46 1004.7
20260503131303 56 0 3.0 12.0 0.00 0.00 0.00 49 1004.7
20260503130803 56 340 1.0 8.0 0.00 0.00 0.00 49 1004.8
20260503130303 55 291 5.0 9.0 0.00 0.00 0.00 49 1004.8
20260503110803 52 0 2.0 6.0 0.00 0.00 0.00 49 1004.4
20260503110303 52 0 3.0 10.0 0.00 0.00 0.00 49 1004.5
20260503090303 54 0 2.0 12.0 0.00 0.00 0.00 46 1005.7
20260503081303 56 0 5.0 12.0 0.00 0.00 0.00 42 1006.4
20260503080803 56 0 6.0 15.0 0.00 0.00 0.00 42 1006.6
20260503080303 56 0 5.0 15.0 0.00 0.00 0.00 42 1006.7
20260503072803 56 0 9.0 20.0 0.00 0.00 0.00 44 1006.7
20260503072305 55 0 6.0 15.0 0.00 0.00 0.00 44 1007.2
20260503071803 55 0 4.0 10.0 0.00 0.00 0.00 44 1007.4
20260503070803 55 0 3.0 9.0 0.00 0.00 0.00 44 1007.7
20260503070303 55 0 3.0 10.0 0.00 0.00 0.00 44 1007.6
20260503060303 53 0 0.0 3.0 0.00 0.00 0.00 43 1008.5
20260503054803 54 0 2.0 5.0 0.00 0.00 0.00 49 1008.5
20260503054303 54 0 1.0 5.0 0.00 0.00 0.00 49 1008.4
20260503053803 54 0 1.0 6.0 0.00 0.00 0.00 49 1008.5
20260503053303 54 0 1.0 8.0 0.00 0.00 0.00 49 1008.5
20260503052803 54 0 1.0 3.0 0.00 0.00 0.00 49 1008.6
20260503052305 54 0 1.0 5.0 0.00 0.00 0.00 49 1008.7
20260503051803 54 0 1.0 3.0 0.00 0.00 0.00 49 1008.9